TimeEST,TemperatureF,Dew PointF,Humidity,Sea Level PressureIn,VisibilityMPH,Wind Direction,Wind SpeedMPH,Gust SpeedMPH,PrecipitationIn,Events,Conditions,WindDirDegrees,DateUTC
12:14 AM,33.8,29.3,84,30.03,7.0,ESE,9.2,-,N/A,,Overcast,120,2013-01-28 05:14:00
12:33 AM,34.0,30.0,85,30.02,5.0,SE,9.2,-,N/A,,Overcast,130,2013-01-28 05:33:00
12:54 AM,34.0,30.2,86,30.00,5.0,SE,10.4,-,N/A,,Overcast,130,2013-01-28 05:54:00
1:13 AM,34.5,30.9,87,29.98,4.0,SE,10.4,-,N/A,,Overcast,140,2013-01-28 06:13:00
1:34 AM,34.7,31.1,87,29.98,3.0,SE,8.1,-,N/A,,Overcast,140,2013-01-28 06:34:00
1:53 AM,35.1,31.8,88,29.97,2.5,SSE,8.1,-,N/A,,Overcast,150,2013-01-28 06:53:00
2:14 AM,35.6,32.0,87,29.96,4.0,SSE,9.2,-,N/A,,Overcast,160,2013-01-28 07:14:00
2:33 AM,36.1,32.2,86,29.95,5.0,South,11.5,-,N/A,,Overcast,170,2013-01-28 07:33:00
2:54 AM,36.5,32.4,85,29.94,3.0,South,10.4,-,N/A,,Overcast,180,2013-01-28 07:54:00
3:13 AM,36.5,32.9,87,29.93,3.0,South,10.4,-,N/A,,Overcast,170,2013-01-28 08:13:00
3:34 AM,36.7,33.1,87,29.91,3.0,South,10.4,17.3,N/A,,Overcast,180,2013-01-28 08:34:00
3:53 AM,36.9,33.4,87,29.89,3.0,South,10.4,-,N/A,,Overcast,180,2013-01-28 08:53:00
4:14 AM,37.4,33.8,87,29.89,3.0,South,10.4,-,N/A,,Overcast,190,2013-01-28 09:14:00
4:33 AM,37.6,34.0,87,29.89,4.0,South,9.2,-,N/A,,Overcast,190,2013-01-28 09:33:00
4:54 AM,37.6,34.2,87,29.88,4.0,South,9.2,-,N/A,,Overcast,190,2013-01-28 09:54:00
5:13 AM,37.9,34.7,88,29.87,3.0,South,6.9,-,N/A,,Overcast,190,2013-01-28 10:13:00
5:34 AM,38.3,34.7,87,29.86,2.5,South,8.1,-,N/A,Rain,Light Rain,190,2013-01-28 10:34:00
5:53 AM,38.3,34.9,87,29.85,2.5,SSW,6.9,-,N/A,,Unknown,200,2013-01-28 10:53:00
6:14 AM,38.5,35.2,88,29.84,2.0,South,8.1,-,N/A,,Unknown,190,2013-01-28 11:14:00
6:34 AM,38.7,35.6,89,29.83,4.0,South,5.8,-,N/A,,Drizzle,190,2013-01-28 11:34:00
6:54 AM,38.8,35.6,88,29.83,3.0,South,5.8,-,N/A,,Overcast,190,2013-01-28 11:54:00
7:14 AM,39.2,35.8,88,29.82,1.8,South,5.8,-,N/A,,Unknown,180,2013-01-28 12:14:00
7:34 AM,39.4,36.1,88,29.81,2.5,South,5.8,-,0.01,,Drizzle,180,2013-01-28 12:34:00
7:54 AM,38.7,35.6,89,29.81,1.0,South,3.5,-,0.01,Rain,Light Rain,180,2013-01-28 12:54:00
8:14 AM,38.8,35.6,88,29.81,0.2,South,4.6,-,N/A,Rain,Rain,190,2013-01-28 13:14:00
8:34 AM,40.3,37.2,89,29.81,0.2,SSW,6.9,-,N/A,Rain,Light Rain,210,2013-01-28 13:34:00
8:53 AM,41.7,38.3,88,29.81,0.8,SSW,8.1,-,N/A,Rain,Heavy Rain,200,2013-01-28 13:53:00
9:14 AM,42.3,39.0,88,29.81,0.8,SSW,8.1,-,N/A,Rain,Light Rain,210,2013-01-28 14:14:00
9:34 AM,42.8,39.6,88,29.81,1.0,SW,8.1,-,N/A,Rain,Rain,220,2013-01-28 14:34:00
9:54 AM,43.2,39.9,88,29.81,1.2,SW,9.2,-,N/A,Rain,Light Rain,220,2013-01-28 14:54:00
10:14 AM,42.6,39.4,88,29.81,0.2,SW,9.2,-,N/A,Rain,Light Rain,230,2013-01-28 15:14:00
10:34 AM,42.8,39.6,88,29.81,0.2,SW,9.2,-,N/A,Rain,Light Rain,230,2013-01-28 15:34:00
10:53 AM,43.2,39.9,88,29.82,0.2,SW,10.4,-,0.01,Rain,Light Rain,230,2013-01-28 15:53:00
11:14 AM,43.9,40.8,89,29.82,0.2,WSW,9.2,-,N/A,Rain,Light Rain,240,2013-01-28 16:14:00
11:33 AM,44.1,40.8,88,29.83,0.2,WSW,11.5,-,N/A,Rain,Light Rain,250,2013-01-28 16:33:00
11:54 AM,44.4,41.0,88,29.83,0.2,West,12.7,-,N/A,Rain,Light Rain,260,2013-01-28 16:54:00
12:13 PM,45.9,42.8,89,29.82,2.0,West,13.8,20.7,N/A,Rain,Light Rain,270,2013-01-28 17:13:00
12:34 PM,46.0,42.8,88,29.82,3.0,West,17.3,24.2,N/A,,Overcast,270,2013-01-28 17:34:00
12:53 PM,45.5,42.3,88,29.83,4.0,West,17.3,24.2,N/A,,Overcast,270,2013-01-28 17:53:00
1:14 PM,44.6,41.2,88,29.83,5.0,West,18.4,23.0,N/A,,Overcast,270,2013-01-28 18:14:00
1:33 PM,44.1,40.3,87,29.84,7.0,West,15.0,21.9,N/A,,Overcast,260,2013-01-28 18:33:00
1:54 PM,43.7,39.7,86,29.84,5.0,West,12.7,18.4,N/A,,Overcast,270,2013-01-28 18:54:00
2:14 PM,43.3,38.5,83,29.84,7.0,West,5.8,-,N/A,,Overcast,270,2013-01-28 19:14:00
2:34 PM,43.2,38.7,84,29.85,10.0,West,8.1,-,N/A,,Overcast,280,2013-01-28 19:34:00
2:54 PM,42.8,37.4,81,29.86,10.0,West,10.4,19.6,N/A,,Overcast,280,2013-01-28 19:54:00
3:14 PM,42.4,36.7,80,29.87,10.0,West,11.5,18.4,N/A,,Overcast,270,2013-01-28 20:14:00
3:33 PM,42.4,36.5,79,29.87,10.0,West,9.2,17.3,N/A,,Overcast,280,2013-01-28 20:33:00
3:54 PM,42.1,35.2,77,29.89,10.0,WNW,9.2,17.3,N/A,,Overcast,290,2013-01-28 20:54:00
4:14 PM,41.9,34.7,76,29.90,10.0,West,11.5,18.4,N/A,,Overcast,280,2013-01-28 21:14:00
4:34 PM,41.9,34.2,74,29.91,10.0,WNW,11.5,-,N/A,,Overcast,290,2013-01-28 21:34:00
4:53 PM,41.5,33.8,74,29.92,10.0,WNW,11.5,-,N/A,,Overcast,290,2013-01-28 21:53:00
5:14 PM,41.4,32.9,72,29.93,10.0,West,13.8,-,N/A,,Overcast,280,2013-01-28 22:14:00
5:33 PM,41.2,32.2,70,29.93,10.0,West,12.7,-,N/A,,Overcast,280,2013-01-28 22:33:00
5:54 PM,40.6,32.4,72,29.94,10.0,West,5.8,-,N/A,,Overcast,280,2013-01-28 22:54:00
6:14 PM,40.3,32.0,72,29.95,10.0,West,6.9,-,N/A,,Overcast,280,2013-01-28 23:14:00
6:34 PM,40.1,32.0,73,29.95,10.0,WNW,5.8,-,N/A,,Overcast,290,2013-01-28 23:34:00
6:54 PM,39.7,32.0,74,29.97,10.0,WNW,9.2,-,N/A,,Overcast,290,2013-01-28 23:54:00
7:14 PM,39.7,32.0,74,29.98,10.0,West,6.9,-,N/A,,Overcast,280,2013-01-29 00:14:00
7:34 PM,39.4,32.0,75,29.98,10.0,West,5.8,-,N/A,,Overcast,270,2013-01-29 00:34:00
7:54 PM,39.0,32.0,76,29.98,10.0,West,3.5,-,N/A,,Overcast,270,2013-01-29 00:54:00
8:14 PM,37.6,32.0,80,29.98,10.0,West,4.6,-,N/A,,Mostly Cloudy,270,2013-01-29 01:14:00
8:34 PM,36.9,31.8,82,29.98,10.0,West,3.5,-,N/A,,Scattered Clouds,260,2013-01-29 01:34:00
8:54 PM,35.8,31.6,85,29.99,10.0,WSW,3.5,-,N/A,,Mostly Cloudy,250,2013-01-29 01:54:00
9:14 PM,35.1,31.5,87,29.97,10.0,Calm,Calm,-,N/A,,Overcast,0,2013-01-29 02:14:00
9:33 PM,35.4,32.0,87,29.98,10.0,Calm,Calm,-,N/A,,Overcast,0,2013-01-29 02:33:00
9:54 PM,35.1,32.0,89,29.99,7.0,SSW,3.5,-,N/A,,Overcast,200,2013-01-29 02:54:00
10:13 PM,36.0,32.5,87,29.99,7.0,SSW,5.8,-,N/A,,Overcast,200,2013-01-29 03:13:00
10:34 PM,36.1,32.4,86,29.99,7.0,Calm,Calm,-,N/A,,Overcast,0,2013-01-29 03:34:00
10:53 PM,36.0,32.2,86,29.99,7.0,Calm,Calm,-,N/A,,Overcast,0,2013-01-29 03:53:00
11:14 PM,35.6,32.0,87,29.99,7.0,Calm,Calm,-,N/A,,Overcast,0,2013-01-29 04:14:00
11:33 PM,34.7,31.6,89,29.97,5.0,Calm,Calm,-,N/A,,Overcast,0,2013-01-29 04:33:00
11:54 PM,34.2,31.3,89,29.97,4.0,ESE,4.6,-,N/A,,Mostly Cloudy,120,2013-01-29 04:54:00